Year,Month,Day,Hour,Minute,Value (Times are PST for temperature in C)
2014,08,10,00,00,17.80
2014,08,10,00,01,17.80
2014,08,10,00,02,17.80
2014,08,10,00,03,17.80
2014,08,10,00,04,17.70
2014,08,10,00,05,17.70
2014,08,10,00,06,17.70
2014,08,10,00,07,17.70
2014,08,10,00,08,17.70
2014,08,10,00,09,17.70
2014,08,10,00,10,17.70
2014,08,10,00,11,17.70
2014,08,10,00,12,17.80
2014,08,10,00,13,17.80
2014,08,10,00,14,17.80
2014,08,10,00,15,17.80
2014,08,10,00,16,17.80
2014,08,10,00,17,17.90
2014,08,10,00,18,17.90
2014,08,10,00,19,18.00
2014,08,10,00,20,18.10
2014,08,10,00,21,18.20
2014,08,10,00,22,18.30
2014,08,10,00,23,18.40
2014,08,10,00,24,18.40
2014,08,10,00,25,18.50
2014,08,10,00,26,18.70
2014,08,10,00,27,18.80
2014,08,10,00,28,18.90
2014,08,10,00,29,18.90
2014,08,10,00,30,19.00
2014,08,10,00,31,19.00
2014,08,10,00,32,19.10
2014,08,10,00,33,19.20
2014,08,10,00,34,19.30
2014,08,10,00,35,19.30
2014,08,10,00,36,19.40
2014,08,10,00,37,19.50
2014,08,10,00,38,19.50
2014,08,10,00,39,19.60
2014,08,10,00,40,19.60
2014,08,10,00,41,19.70
2014,08,10,00,42,19.70
2014,08,10,00,43,19.70
2014,08,10,00,44,19.80
2014,08,10,00,45,19.80
2014,08,10,00,46,19.90
2014,08,10,00,47,19.90
2014,08,10,00,48,20.00
2014,08,10,00,49,20.00
2014,08,10,00,50,20.10
2014,08,10,00,51,20.10
2014,08,10,00,52,20.10
2014,08,10,00,53,20.10
2014,08,10,00,54,20.10
2014,08,10,00,55,20.10
2014,08,10,00,56,20.10
2014,08,10,00,57,20.00
2014,08,10,00,58,20.00
2014,08,10,00,59,19.90
2014,08,10,01,00,19.90
2014,08,10,01,01,19.90
2014,08,10,01,02,19.90
2014,08,10,01,03,19.90
2014,08,10,01,04,19.90
2014,08,10,01,05,19.90
2014,08,10,01,06,19.90
2014,08,10,01,07,19.90
2014,08,10,01,08,19.80
2014,08,10,01,09,19.80
2014,08,10,01,10,19.80
2014,08,10,01,11,19.80
2014,08,10,01,12,19.70
2014,08,10,01,13,19.70
2014,08,10,01,14,19.70
2014,08,10,01,15,19.70
2014,08,10,01,16,19.60
2014,08,10,01,17,19.60
2014,08,10,01,18,19.60
2014,08,10,01,19,19.50
2014,08,10,01,20,19.50
2014,08,10,01,21,19.40
2014,08,10,01,22,19.40
2014,08,10,01,23,19.30
2014,08,10,01,24,19.30
2014,08,10,01,25,19.20
2014,08,10,01,26,19.20
2014,08,10,01,27,19.10
2014,08,10,01,28,19.00
2014,08,10,01,29,18.90
2014,08,10,01,30,18.90
2014,08,10,01,31,18.80
2014,08,10,01,32,18.80
2014,08,10,01,33,18.70
2014,08,10,01,34,18.60
2014,08,10,01,35,18.60
2014,08,10,01,36,18.50
2014,08,10,01,37,18.50
2014,08,10,01,38,18.40
2014,08,10,01,39,18.30
2014,08,10,01,40,18.30
2014,08,10,01,41,18.20
2014,08,10,01,42,18.20
2014,08,10,01,43,18.10
2014,08,10,01,44,18.00
2014,08,10,01,45,18.00
2014,08,10,01,46,17.90
2014,08,10,01,47,17.90
2014,08,10,01,48,17.80
2014,08,10,01,49,17.80
2014,08,10,01,50,17.70
2014,08,10,01,51,17.70
2014,08,10,01,52,17.70
2014,08,10,01,53,17.60
2014,08,10,01,54,17.60
2014,08,10,01,55,17.50
2014,08,10,01,56,17.50
2014,08,10,01,57,17.40
2014,08,10,01,58,17.40
2014,08,10,01,59,17.40
2014,08,10,02,00,17.30
2014,08,10,02,01,17.30
2014,08,10,02,02,17.30
2014,08,10,02,03,17.30
2014,08,10,02,04,17.20
2014,08,10,02,05,17.20
2014,08,10,02,06,17.20
2014,08,10,02,07,17.20
2014,08,10,02,08,17.20
2014,08,10,02,09,17.10
2014,08,10,02,10,17.10
2014,08,10,02,11,17.10
2014,08,10,02,12,17.10
2014,08,10,02,13,17.10
2014,08,10,02,14,17.10
2014,08,10,02,15,17.10
2014,08,10,02,16,17.10
2014,08,10,02,17,17.10
2014,08,10,02,18,17.10
2014,08,10,02,19,17.10
2014,08,10,02,20,17.00
2014,08,10,02,21,17.00
2014,08,10,02,22,17.00
2014,08,10,02,23,17.00
2014,08,10,02,24,17.00
2014,08,10,02,25,17.00
2014,08,10,02,26,17.00
2014,08,10,02,27,17.00
2014,08,10,02,28,16.90
2014,08,10,02,29,16.90
2014,08,10,02,30,16.90
2014,08,10,02,31,16.90
2014,08,10,02,32,16.90
2014,08,10,02,33,16.90
2014,08,10,02,34,16.90
2014,08,10,02,35,16.90
2014,08,10,02,36,16.90
2014,08,10,02,37,16.90
2014,08,10,02,38,16.80
2014,08,10,02,39,16.80
2014,08,10,02,40,16.80
2014,08,10,02,41,16.80
2014,08,10,02,42,16.80
2014,08,10,02,43,16.80
2014,08,10,02,44,16.80
2014,08,10,02,45,16.80
2014,08,10,02,46,16.70
2014,08,10,02,47,16.70
2014,08,10,02,48,16.70
2014,08,10,02,49,16.70
2014,08,10,02,50,16.70
2014,08,10,02,51,16.70
2014,08,10,02,52,16.60
2014,08,10,02,53,16.60
2014,08,10,02,54,16.60
2014,08,10,02,55,16.60
2014,08,10,02,56,16.60
2014,08,10,02,57,16.50
2014,08,10,02,58,16.50
2014,08,10,02,59,16.50
2014,08,10,03,00,16.50
2014,08,10,03,01,16.40
2014,08,10,03,02,16.40
2014,08,10,03,03,16.40
2014,08,10,03,04,16.40
2014,08,10,03,05,16.40
2014,08,10,03,06,16.40
2014,08,10,03,07,16.40
2014,08,10,03,08,16.40
2014,08,10,03,09,16.40
2014,08,10,03,10,16.40
2014,08,10,03,11,16.40
2014,08,10,03,12,16.40
2014,08,10,03,13,16.50
2014,08,10,03,14,16.50
2014,08,10,03,15,16.50
2014,08,10,03,16,16.60
2014,08,10,03,17,16.60
2014,08,10,03,18,16.60
2014,08,10,03,19,16.60
2014,08,10,03,20,16.60
2014,08,10,03,21,16.60
2014,08,10,03,22,16.50
2014,08,10,03,23,16.50
2014,08,10,03,24,16.50
2014,08,10,03,25,16.50
2014,08,10,03,26,16.50
2014,08,10,03,27,16.40
2014,08,10,03,28,16.40
2014,08,10,03,29,16.40
2014,08,10,03,30,16.40
2014,08,10,03,31,16.40
2014,08,10,03,32,16.40
2014,08,10,03,33,16.40
2014,08,10,03,34,16.40
2014,08,10,03,35,16.40
2014,08,10,03,36,16.50
2014,08,10,03,37,16.50
2014,08,10,03,38,16.60
2014,08,10,03,39,16.60
2014,08,10,03,40,16.60
2014,08,10,03,41,16.60
2014,08,10,03,42,16.70
2014,08,10,03,43,16.70
2014,08,10,03,44,16.70
2014,08,10,03,45,16.70
2014,08,10,03,46,16.70
2014,08,10,03,47,16.70
2014,08,10,03,48,16.70
2014,08,10,03,49,16.60
2014,08,10,03,50,16.60
2014,08,10,03,51,16.60
2014,08,10,03,52,16.50
2014,08,10,03,53,16.50
2014,08,10,03,54,16.40
2014,08,10,03,55,16.40
2014,08,10,03,56,16.30
2014,08,10,03,57,16.30
2014,08,10,03,58,16.30
2014,08,10,03,59,16.20
2014,08,10,04,00,16.20
2014,08,10,04,01,16.20
2014,08,10,04,02,16.10
2014,08,10,04,03,16.10
2014,08,10,04,04,16.10
2014,08,10,04,05,16.10
2014,08,10,04,06,16.10
2014,08,10,04,07,16.00
2014,08,10,04,08,16.00
2014,08,10,04,09,16.00
2014,08,10,04,10,16.00
2014,08,10,04,11,15.90
2014,08,10,04,12,15.90
2014,08,10,04,13,15.90
2014,08,10,04,14,15.90
2014,08,10,04,15,15.80
2014,08,10,04,16,15.80
2014,08,10,04,17,15.80
2014,08,10,04,18,15.80
2014,08,10,04,19,15.80
2014,08,10,04,20,15.80
2014,08,10,04,21,15.70
2014,08,10,04,22,15.70
2014,08,10,04,23,15.70
2014,08,10,04,24,15.70
2014,08,10,04,25,15.60
2014,08,10,04,26,15.60
2014,08,10,04,27,15.60
2014,08,10,04,28,15.60
2014,08,10,04,29,15.60
2014,08,10,04,30,15.50
2014,08,10,04,31,15.50
2014,08,10,04,32,15.50
2014,08,10,04,33,15.50
2014,08,10,04,34,15.40
2014,08,10,04,35,15.40
2014,08,10,04,36,15.40
2014,08,10,04,37,15.40
2014,08,10,04,38,15.40
2014,08,10,04,39,15.40
2014,08,10,04,40,15.30
2014,08,10,04,41,15.30
2014,08,10,04,42,15.30
2014,08,10,04,43,15.30
2014,08,10,04,44,15.30
2014,08,10,04,45,15.30
2014,08,10,04,46,15.30
2014,08,10,04,47,15.30
2014,08,10,04,48,15.20
2014,08,10,04,49,15.20
2014,08,10,04,50,15.20
2014,08,10,04,51,15.20
2014,08,10,04,52,15.20
2014,08,10,04,53,15.20
2014,08,10,04,54,15.20
2014,08,10,04,55,15.20
2014,08,10,04,56,15.20
2014,08,10,04,57,15.20
2014,08,10,04,58,15.20
2014,08,10,04,59,15.20
2014,08,10,05,00,15.20
2014,08,10,05,01,15.10
2014,08,10,05,02,15.10
2014,08,10,05,03,15.10
2014,08,10,05,04,15.10
2014,08,10,05,05,15.10
2014,08,10,05,06,15.10
2014,08,10,05,07,15.10
2014,08,10,05,08,15.10
2014,08,10,05,09,15.10
2014,08,10,05,10,15.00
2014,08,10,05,11,15.00
2014,08,10,05,12,15.00
2014,08,10,05,13,15.00
2014,08,10,05,14,15.00
2014,08,10,05,15,14.90
2014,08,10,05,16,14.90
2014,08,10,05,17,14.90
2014,08,10,05,18,14.90
2014,08,10,05,19,14.90
2014,08,10,05,20,14.80
2014,08,10,05,21,14.80
2014,08,10,05,22,14.80
2014,08,10,05,23,14.80
2014,08,10,05,24,14.80
2014,08,10,05,25,14.80
2014,08,10,05,26,14.80
2014,08,10,05,27,14.80
2014,08,10,05,28,14.80
2014,08,10,05,29,14.80
2014,08,10,05,30,14.80
2014,08,10,05,31,14.80
2014,08,10,05,32,14.80
2014,08,10,05,33,14.80
2014,08,10,05,34,14.80
2014,08,10,05,35,14.90
2014,08,10,05,36,14.90
2014,08,10,05,37,14.90
2014,08,10,05,38,14.90
2014,08,10,05,39,14.90
2014,08,10,05,40,14.90
2014,08,10,05,41,14.90
2014,08,10,05,42,14.90
2014,08,10,05,43,14.90
2014,08,10,05,44,14.90
2014,08,10,05,45,14.90
2014,08,10,05,46,14.90
2014,08,10,05,47,14.90
2014,08,10,05,48,14.90
2014,08,10,05,49,14.80
2014,08,10,05,50,14.80
2014,08,10,05,51,14.80
2014,08,10,05,52,14.80
2014,08,10,05,53,14.80
2014,08,10,05,54,14.80
2014,08,10,05,55,14.80
2014,08,10,05,56,14.80
2014,08,10,05,57,14.80
2014,08,10,05,58,14.80
2014,08,10,05,59,14.80
2014,08,10,06,00,14.80
2014,08,10,06,01,14.80
2014,08,10,06,02,14.80
2014,08,10,06,03,14.70
2014,08,10,06,04,14.70
2014,08,10,06,05,14.70
2014,08,10,06,06,14.70
2014,08,10,06,07,14.70
2014,08,10,06,08,14.70
2014,08,10,06,09,14.70
2014,08,10,06,10,14.70
2014,08,10,06,11,14.60
2014,08,10,06,12,14.60
2014,08,10,06,13,14.60
2014,08,10,06,14,14.60
2014,08,10,06,15,14.60
2014,08,10,06,16,14.60
2014,08,10,06,17,14.50
2014,08,10,06,18,14.50
2014,08,10,06,19,14.50
2014,08,10,06,20,14.50
2014,08,10,06,21,14.50
2014,08,10,06,22,14.50
2014,08,10,06,23,14.60
2014,08,10,06,24,14.60
2014,08,10,06,25,14.60
2014,08,10,06,26,14.60
2014,08,10,06,27,14.60
2014,08,10,06,28,14.60
2014,08,10,06,29,14.50
2014,08,10,06,30,14.50
2014,08,10,06,31,14.60
2014,08,10,06,32,14.60
2014,08,10,06,33,14.60
2014,08,10,06,34,14.60
2014,08,10,06,35,14.60
2014,08,10,06,36,14.60
2014,08,10,06,37,14.70
2014,08,10,06,38,14.70
2014,08,10,06,39,14.70
2014,08,10,06,40,14.80
2014,08,10,06,41,14.80
2014,08,10,06,42,14.90
2014,08,10,06,43,14.90
2014,08,10,06,44,15.00
2014,08,10,06,45,15.10
2014,08,10,06,46,15.10
2014,08,10,06,47,15.10
2014,08,10,06,48,15.10
2014,08,10,06,49,15.20
2014,08,10,06,50,15.20
2014,08,10,06,51,15.20
2014,08,10,06,52,15.20
2014,08,10,06,53,15.20
2014,08,10,06,54,15.20
2014,08,10,06,55,15.20
2014,08,10,06,56,15.20
2014,08,10,06,57,15.20
2014,08,10,06,58,15.20
2014,08,10,06,59,15.20
2014,08,10,07,00,15.20
2014,08,10,07,01,15.20
2014,08,10,07,02,15.20
2014,08,10,07,03,15.20
2014,08,10,07,04,15.20
2014,08,10,07,05,15.20
2014,08,10,07,06,15.20
2014,08,10,07,07,15.10
2014,08,10,07,08,15.10
2014,08,10,07,09,15.10
2014,08,10,07,10,15.20
2014,08,10,07,11,15.20
2014,08,10,07,12,15.20
2014,08,10,07,13,15.20
2014,08,10,07,14,15.30
2014,08,10,07,15,15.30
2014,08,10,07,16,15.30
2014,08,10,07,17,15.30
2014,08,10,07,18,15.40
2014,08,10,07,19,15.40
2014,08,10,07,20,15.40
2014,08,10,07,21,15.40
2014,08,10,07,22,15.40
2014,08,10,07,23,15.50
2014,08,10,07,24,15.50
2014,08,10,07,25,15.50
2014,08,10,07,26,15.60
2014,08,10,07,27,15.60
2014,08,10,07,28,15.60
2014,08,10,07,29,15.60
2014,08,10,07,30,15.60
2014,08,10,07,31,15.60
2014,08,10,07,32,15.70
2014,08,10,07,33,15.70
2014,08,10,07,34,15.70
2014,08,10,07,35,15.70
2014,08,10,07,36,15.70
2014,08,10,07,37,15.70
2014,08,10,07,38,15.80
2014,08,10,07,39,15.80
2014,08,10,07,40,15.80
2014,08,10,07,41,15.80
2014,08,10,07,42,15.90
2014,08,10,07,43,16.00
2014,08,10,07,44,16.00
2014,08,10,07,45,16.10
2014,08,10,07,46,16.20
2014,08,10,07,47,16.30
2014,08,10,07,48,16.50
2014,08,10,07,49,16.70
2014,08,10,07,50,16.80
2014,08,10,07,51,17.00
2014,08,10,07,52,17.10
2014,08,10,07,53,17.30
2014,08,10,07,54,17.40
2014,08,10,07,55,17.60
2014,08,10,07,56,17.80
2014,08,10,07,57,18.00
2014,08,10,07,58,18.20
2014,08,10,07,59,18.40
2014,08,10,08,00,18.50
2014,08,10,08,01,18.70
2014,08,10,08,02,18.80
2014,08,10,08,03,18.80
2014,08,10,08,04,18.90
2014,08,10,08,05,19.00
2014,08,10,08,06,19.00
2014,08,10,08,07,19.10
2014,08,10,08,08,19.20
2014,08,10,08,09,19.30
2014,08,10,08,10,19.40
2014,08,10,08,11,19.50
2014,08,10,08,12,19.60
2014,08,10,08,13,19.70
2014,08,10,08,14,19.70
2014,08,10,08,15,19.70
2014,08,10,08,16,19.80
2014,08,10,08,17,19.80
2014,08,10,08,18,19.90
2014,08,10,08,19,19.90
2014,08,10,08,20,20.00
2014,08,10,08,21,20.10
2014,08,10,08,22,20.10
2014,08,10,08,23,20.10
2014,08,10,08,24,20.20
2014,08,10,08,25,20.20
2014,08,10,08,26,20.20
2014,08,10,08,27,20.20
2014,08,10,08,28,20.20
2014,08,10,08,29,20.20
2014,08,10,08,30,20.20
2014,08,10,08,31,20.20
2014,08,10,08,32,20.20
2014,08,10,08,33,20.20
2014,08,10,08,34,20.20
2014,08,10,08,35,20.20
2014,08,10,08,36,20.20
2014,08,10,08,37,20.20
2014,08,10,08,38,20.20
2014,08,10,08,39,20.20
2014,08,10,08,40,20.20
2014,08,10,08,41,20.20
2014,08,10,08,42,20.20
2014,08,10,08,43,20.20
2014,08,10,08,44,20.20
2014,08,10,08,45,20.20
2014,08,10,08,46,20.20
2014,08,10,08,47,20.20
2014,08,10,08,48,20.30
2014,08,10,08,49,20.30
2014,08,10,08,50,20.30
2014,08,10,08,51,20.30
2014,08,10,08,52,20.30
2014,08,10,08,53,20.30
2014,08,10,08,54,20.30
2014,08,10,08,55,20.30
2014,08,10,08,56,20.30
2014,08,10,08,57,20.40
2014,08,10,08,58,20.40
2014,08,10,08,59,20.50
2014,08,10,09,00,20.50
2014,08,10,09,01,20.50
2014,08,10,09,02,20.50
2014,08,10,09,03,20.60
2014,08,10,09,04,20.60
2014,08,10,09,05,20.60
2014,08,10,09,06,20.70
2014,08,10,09,07,20.70
2014,08,10,09,08,20.70
2014,08,10,09,09,20.70
2014,08,10,09,10,20.70
2014,08,10,09,11,20.70
2014,08,10,09,12,20.70
2014,08,10,09,13,20.70
2014,08,10,09,14,20.70
2014,08,10,09,15,20.70
2014,08,10,09,16,20.70
2014,08,10,09,17,20.70
2014,08,10,09,18,20.70
2014,08,10,09,19,20.70
2014,08,10,09,20,20.70
2014,08,10,09,21,20.80
2014,08,10,09,22,20.80
2014,08,10,09,23,20.80
2014,08,10,09,24,20.90
2014,08,10,09,25,20.90
2014,08,10,09,26,21.00
2014,08,10,09,27,21.00
2014,08,10,09,28,21.00
2014,08,10,09,29,21.10
2014,08,10,09,30,21.10
2014,08,10,09,31,21.20
2014,08,10,09,32,21.20
2014,08,10,09,33,21.30
2014,08,10,09,34,21.30
2014,08,10,09,35,21.30
2014,08,10,09,36,21.30
2014,08,10,09,37,21.30
2014,08,10,09,38,21.30
2014,08,10,09,39,21.30
2014,08,10,09,40,21.30
2014,08,10,09,41,21.30
2014,08,10,09,42,21.30
2014,08,10,09,43,21.30
2014,08,10,09,44,21.30
2014,08,10,09,45,21.30
2014,08,10,09,46,21.40
2014,08,10,09,47,21.40
2014,08,10,09,48,21.50
2014,08,10,09,49,21.50
2014,08,10,09,50,21.50
2014,08,10,09,51,21.60
2014,08,10,09,52,21.70
2014,08,10,09,53,21.70
2014,08,10,09,54,21.70
2014,08,10,09,55,21.80
2014,08,10,09,56,21.80
2014,08,10,09,57,21.80
2014,08,10,09,58,21.80
2014,08,10,09,59,21.80
2014,08,10,10,00,21.80
2014,08,10,10,01,21.80
2014,08,10,10,02,21.90
2014,08,10,10,03,21.90
2014,08,10,10,04,21.90
2014,08,10,10,05,21.90
2014,08,10,10,06,21.90
2014,08,10,10,07,21.80
2014,08,10,10,08,21.80
2014,08,10,10,09,21.90
2014,08,10,10,10,21.90
2014,08,10,10,11,21.90
2014,08,10,10,12,21.90
2014,08,10,10,13,21.90
2014,08,10,10,14,21.90
2014,08,10,10,15,21.80
2014,08,10,10,16,21.80
2014,08,10,10,17,21.80
2014,08,10,10,18,21.80
2014,08,10,10,19,21.80
2014,08,10,10,20,21.70
2014,08,10,10,21,21.70
2014,08,10,10,22,21.70
2014,08,10,10,23,21.70
2014,08,10,10,24,21.70
2014,08,10,10,25,21.80
2014,08,10,10,26,21.80
2014,08,10,10,27,21.80
2014,08,10,10,28,21.80
2014,08,10,10,29,21.80
2014,08,10,10,30,21.90
2014,08,10,10,31,21.80
2014,08,10,10,32,21.80
2014,08,10,10,33,21.80
2014,08,10,10,34,21.80
2014,08,10,10,35,21.90
2014,08,10,10,36,22.00
2014,08,10,10,37,22.00
2014,08,10,10,38,22.10
2014,08,10,10,39,22.10
2014,08,10,10,40,22.20
2014,08,10,10,41,22.20
2014,08,10,10,42,22.20
2014,08,10,10,43,22.20
2014,08,10,10,44,22.30
2014,08,10,10,45,22.30
2014,08,10,10,46,22.40
2014,08,10,10,47,22.40
2014,08,10,10,48,22.40
2014,08,10,10,49,22.50
2014,08,10,10,50,22.50
2014,08,10,10,51,22.60
2014,08,10,10,52,22.70
2014,08,10,10,53,22.80
2014,08,10,10,54,22.90
2014,08,10,10,55,23.00
2014,08,10,10,56,23.00
2014,08,10,10,57,23.10
2014,08,10,10,58,23.20
2014,08,10,10,59,23.20
2014,08,10,11,00,23.30
2014,08,10,11,01,23.30
2014,08,10,11,02,23.30
2014,08,10,11,03,23.30
2014,08,10,11,04,23.30
2014,08,10,11,05,23.40
2014,08,10,11,06,23.40
2014,08,10,11,07,23.40
2014,08,10,11,08,23.50
2014,08,10,11,09,23.50
2014,08,10,11,10,23.50
2014,08,10,11,11,23.50
2014,08,10,11,12,23.60
2014,08,10,11,13,23.70
2014,08,10,11,14,23.70
2014,08,10,11,15,23.80
2014,08,10,11,16,23.80
2014,08,10,11,17,23.80
2014,08,10,11,18,23.80
2014,08,10,11,19,23.80
2014,08,10,11,20,23.80
2014,08,10,11,21,23.80
2014,08,10,11,22,23.80
2014,08,10,11,23,23.80
2014,08,10,11,24,23.90
2014,08,10,11,25,23.90
2014,08,10,11,26,24.00
2014,08,10,11,27,24.00
2014,08,10,11,28,24.10
2014,08,10,11,29,24.20
2014,08,10,11,30,24.30
2014,08,10,11,31,24.30
2014,08,10,11,32,24.20
2014,08,10,11,33,24.20
2014,08,10,11,34,24.20
2014,08,10,11,35,24.30
2014,08,10,11,36,24.40
2014,08,10,11,37,24.50
2014,08,10,11,38,24.50
2014,08,10,11,39,24.50
2014,08,10,11,40,24.50
2014,08,10,11,41,24.50
2014,08,10,11,42,24.60
2014,08,10,11,43,24.50
2014,08,10,11,44,24.40
2014,08,10,11,45,24.40
2014,08,10,11,46,24.30
2014,08,10,11,47,24.30
2014,08,10,11,48,24.30
2014,08,10,11,49,24.40
2014,08,10,11,50,24.40
2014,08,10,11,51,24.50
2014,08,10,11,52,24.50
2014,08,10,11,53,24.50
2014,08,10,11,54,24.50
2014,08,10,11,55,24.50
2014,08,10,11,56,24.60
2014,08,10,11,57,24.60
2014,08,10,11,58,24.60
2014,08,10,11,59,24.50
2014,08,10,12,00,24.40
2014,08,10,12,01,24.40
2014,08,10,12,02,24.40
2014,08,10,12,03,24.40
2014,08,10,12,04,24.30
2014,08,10,12,05,24.30
2014,08,10,12,06,24.40
2014,08,10,12,07,24.40
2014,08,10,12,08,24.40
2014,08,10,12,09,24.40
2014,08,10,12,10,24.40
2014,08,10,12,11,24.40
2014,08,10,12,12,24.40
2014,08,10,12,13,24.40
2014,08,10,12,14,24.40
2014,08,10,12,15,24.50
2014,08,10,12,16,24.60
2014,08,10,12,17,24.60
2014,08,10,12,18,24.60
2014,08,10,12,19,24.60
2014,08,10,12,20,24.60
2014,08,10,12,21,24.50
2014,08,10,12,22,24.50
2014,08,10,12,23,24.40
2014,08,10,12,24,24.40
2014,08,10,12,25,24.30
2014,08,10,12,26,24.30
2014,08,10,12,27,24.30
2014,08,10,12,28,24.20
2014,08,10,12,29,24.20
2014,08,10,12,30,24.30
2014,08,10,12,31,24.30
2014,08,10,12,32,24.30
2014,08,10,12,33,24.30
2014,08,10,12,34,24.30
2014,08,10,12,35,24.30
2014,08,10,12,36,24.30
2014,08,10,12,37,24.40
2014,08,10,12,38,24.40
2014,08,10,12,39,24.40
2014,08,10,12,40,24.50
2014,08,10,12,41,24.60
2014,08,10,12,42,24.60
2014,08,10,12,43,24.60
2014,08,10,12,44,24.50
2014,08,10,12,45,24.60
2014,08,10,12,46,24.60
2014,08,10,12,47,24.50
2014,08,10,12,48,24.50
2014,08,10,12,49,24.60
2014,08,10,12,50,24.60
2014,08,10,12,51,24.70
2014,08,10,12,52,24.70
2014,08,10,12,53,24.80
2014,08,10,12,54,24.80
2014,08,10,12,55,24.80
2014,08,10,12,56,24.80
2014,08,10,12,57,24.80
2014,08,10,12,58,24.80
2014,08,10,12,59,24.80
2014,08,10,13,00,24.80
2014,08,10,13,01,24.80
2014,08,10,13,02,24.90
2014,08,10,13,03,24.90
2014,08,10,13,04,24.90
2014,08,10,13,05,24.90
2014,08,10,13,06,25.00
2014,08,10,13,07,25.00
2014,08,10,13,08,25.00
2014,08,10,13,09,25.00
2014,08,10,13,10,25.00
2014,08,10,13,11,25.00
2014,08,10,13,12,25.00
2014,08,10,13,13,25.10
2014,08,10,13,14,25.20
2014,08,10,13,15,25.20
2014,08,10,13,16,25.30
2014,08,10,13,17,25.30
2014,08,10,13,18,25.30
2014,08,10,13,19,25.40
2014,08,10,13,20,25.40
2014,08,10,13,21,25.40
2014,08,10,13,22,25.40
2014,08,10,13,23,25.40
2014,08,10,13,24,25.40
2014,08,10,13,25,25.40
2014,08,10,13,26,25.50
2014,08,10,13,27,25.60
2014,08,10,13,28,25.60
2014,08,10,13,29,25.60
2014,08,10,13,30,25.70
2014,08,10,13,31,25.70
2014,08,10,13,32,25.70
2014,08,10,13,33,25.60
2014,08,10,13,34,25.60
2014,08,10,13,35,25.60
2014,08,10,13,36,25.60
2014,08,10,13,37,25.60
2014,08,10,13,38,25.60
2014,08,10,13,39,25.70
2014,08,10,13,40,25.60
2014,08,10,13,41,25.60
2014,08,10,13,42,25.70
2014,08,10,13,43,25.70
2014,08,10,13,44,25.80
2014,08,10,13,45,25.90
2014,08,10,13,46,26.00
2014,08,10,13,47,26.10
2014,08,10,13,48,26.20
2014,08,10,13,49,26.30
2014,08,10,13,50,26.30
2014,08,10,13,51,26.30
2014,08,10,13,52,26.30
2014,08,10,13,53,26.40
2014,08,10,13,54,26.40
2014,08,10,13,55,26.30
2014,08,10,13,56,26.40
2014,08,10,13,57,26.40
2014,08,10,13,58,26.40
2014,08,10,13,59,26.30
2014,08,10,14,00,26.30
2014,08,10,14,01,26.30
2014,08,10,14,02,26.30
2014,08,10,14,03,26.40
2014,08,10,14,04,26.40
2014,08,10,14,05,26.40
2014,08,10,14,06,26.40
2014,08,10,14,07,26.40
2014,08,10,14,08,26.40
2014,08,10,14,09,26.40
2014,08,10,14,10,26.40
2014,08,10,14,11,26.40
2014,08,10,14,12,26.40
2014,08,10,14,13,26.40
2014,08,10,14,14,26.40
2014,08,10,14,15,26.40
2014,08,10,14,16,26.50
2014,08,10,14,17,26.60
2014,08,10,14,18,26.70
2014,08,10,14,19,26.80
2014,08,10,14,20,26.70
2014,08,10,14,21,26.70
2014,08,10,14,22,26.70
2014,08,10,14,23,26.60
2014,08,10,14,24,26.70
2014,08,10,14,25,26.80
2014,08,10,14,26,27.00
2014,08,10,14,27,27.10
2014,08,10,14,28,27.20
2014,08,10,14,29,27.20
2014,08,10,14,30,27.10
2014,08,10,14,31,27.10
2014,08,10,14,32,27.20
2014,08,10,14,33,27.20
2014,08,10,14,34,27.30
2014,08,10,14,35,27.40
2014,08,10,14,36,27.50
2014,08,10,14,37,27.60
2014,08,10,14,38,27.60
2014,08,10,14,39,27.60
2014,08,10,14,40,27.60
2014,08,10,14,41,27.60
2014,08,10,14,42,27.60
2014,08,10,14,43,27.70
2014,08,10,14,44,27.60
2014,08,10,14,45,27.60
2014,08,10,14,46,27.60
2014,08,10,14,47,27.60
2014,08,10,14,48,27.50
2014,08,10,14,49,27.40
2014,08,10,14,50,27.40
2014,08,10,14,51,27.40
2014,08,10,14,52,27.40
2014,08,10,14,53,27.50
2014,08,10,14,54,27.50
2014,08,10,14,55,27.60
2014,08,10,14,56,27.50
2014,08,10,14,57,27.50
2014,08,10,14,58,27.40
2014,08,10,14,59,27.40
2014,08,10,15,00,27.40
2014,08,10,15,01,27.30
2014,08,10,15,02,27.30
2014,08,10,15,03,27.30
2014,08,10,15,04,27.30
2014,08,10,15,05,27.30
2014,08,10,15,06,27.30
2014,08,10,15,07,27.40
2014,08,10,15,08,27.50
2014,08,10,15,09,27.60
2014,08,10,15,10,27.70
2014,08,10,15,11,27.80
2014,08,10,15,12,27.90
2014,08,10,15,13,27.90
2014,08,10,15,14,27.90
2014,08,10,15,15,28.00
2014,08,10,15,16,28.00
2014,08,10,15,17,28.10
2014,08,10,15,18,28.10
2014,08,10,15,19,28.00
2014,08,10,15,20,28.00
2014,08,10,15,21,28.00
2014,08,10,15,22,28.00
2014,08,10,15,23,27.90
2014,08,10,15,24,27.90
2014,08,10,15,25,27.90
2014,08,10,15,26,28.00
2014,08,10,15,27,28.10
2014,08,10,15,28,28.20
2014,08,10,15,29,28.40
2014,08,10,15,30,28.60
2014,08,10,15,31,28.70
2014,08,10,15,32,28.70
2014,08,10,15,33,28.70
2014,08,10,15,34,28.70
2014,08,10,15,35,28.60
2014,08,10,15,36,28.50
2014,08,10,15,37,28.50
2014,08,10,15,38,28.40
2014,08,10,15,39,28.40
2014,08,10,15,40,28.40
2014,08,10,15,41,28.40
2014,08,10,15,42,28.40
2014,08,10,15,43,28.30
2014,08,10,15,44,28.30
2014,08,10,15,45,28.30
2014,08,10,15,46,28.30
2014,08,10,15,47,28.30
2014,08,10,15,48,28.30
2014,08,10,15,49,28.30
2014,08,10,15,50,28.30
2014,08,10,15,51,28.30
2014,08,10,15,52,28.30
2014,08,10,15,53,28.30
2014,08,10,15,54,28.40
2014,08,10,15,55,28.50
2014,08,10,15,56,28.50
2014,08,10,15,57,28.50
2014,08,10,15,58,28.50
2014,08,10,15,59,28.60
2014,08,10,16,00,28.60
2014,08,10,16,01,28.60
2014,08,10,16,02,28.70
2014,08,10,16,03,28.80
2014,08,10,16,04,28.80
2014,08,10,16,05,28.80
2014,08,10,16,06,28.90
2014,08,10,16,07,28.80
2014,08,10,16,08,28.80
2014,08,10,16,09,28.80
2014,08,10,16,10,28.80
2014,08,10,16,11,28.90
2014,08,10,16,12,28.90
2014,08,10,16,13,28.80
2014,08,10,16,14,28.80
2014,08,10,16,15,28.80
2014,08,10,16,16,28.80
2014,08,10,16,17,28.90
2014,08,10,16,18,28.90
2014,08,10,16,19,28.90
2014,08,10,16,20,28.90
2014,08,10,16,21,28.90
2014,08,10,16,22,29.00
2014,08,10,16,23,29.00
2014,08,10,16,24,29.00
2014,08,10,16,25,29.10
2014,08,10,16,26,29.00
2014,08,10,16,27,29.00
2014,08,10,16,28,28.90
2014,08,10,16,29,28.90
2014,08,10,16,30,29.00
2014,08,10,16,31,29.00
2014,08,10,16,32,29.00
2014,08,10,16,33,29.00
2014,08,10,16,34,28.90
2014,08,10,16,35,29.00
2014,08,10,16,36,29.00
2014,08,10,16,37,29.00
2014,08,10,16,38,28.90
2014,08,10,16,39,28.90
2014,08,10,16,40,28.90
2014,08,10,16,41,28.90
2014,08,10,16,42,28.90
2014,08,10,16,43,29.00
2014,08,10,16,44,28.90
2014,08,10,16,45,28.90
2014,08,10,16,46,28.90
2014,08,10,16,47,28.90
2014,08,10,16,48,29.00
2014,08,10,16,49,28.90
2014,08,10,16,50,28.80
2014,08,10,16,51,28.80
2014,08,10,16,52,28.80
2014,08,10,16,53,28.70
2014,08,10,16,54,28.70
2014,08,10,16,55,28.70
2014,08,10,16,56,28.60
2014,08,10,16,57,28.60
2014,08,10,16,58,28.60
2014,08,10,16,59,28.70
2014,08,10,17,00,28.80
2014,08,10,17,01,28.80
2014,08,10,17,02,28.80
2014,08,10,17,03,28.80
2014,08,10,17,04,28.70
2014,08,10,17,05,28.80
2014,08,10,17,06,28.80
2014,08,10,17,07,28.90
2014,08,10,17,08,28.90
2014,08,10,17,09,29.00
2014,08,10,17,10,29.10
2014,08,10,17,11,29.10
2014,08,10,17,12,29.10
2014,08,10,17,13,29.10
2014,08,10,17,14,29.20
2014,08,10,17,15,29.20
2014,08,10,17,16,29.20
2014,08,10,17,17,29.20
2014,08,10,17,18,29.20
2014,08,10,17,19,29.20